Location: Baili�vre
(50.0696°N, 4.2409°E)
Time: 09:46:18
(UTC+00:00)

Cosmos 1242 Rocket - Pass Details

Date: 08 August 2020
Orbit: 448 x 486 km, 81.2° (Epoch: 21 September)

Event Time Altitude Azimuth Distance (km) Brightness Sun altitude
Rises 22:06:44 0° 356° (N) 2,528 7.4 -20.4°
Reaches altitude 10° 22:09:03 10° 9° (N) 1,652 6.0 -20.6°
Maximum altitude 22:12:12 27° 70° (ENE) 944 3.9 -20.8°
Enters shadow 22:12:12 27° 70° (ENE) 944 3.9 -20.8°
